Weather History for KTLH - March, 2014

Change the Weather History Date:

Saturday, March 22, 2014

  Actual Average Record
Temperature  
Mean Temperature 69 °F 62 °F  
Max Temperature 83 °F 75 °F 91 °F (1935)
Min Temperature 55 °F 48 °F 29 °F (1960)
Degree Days  
Heating Degree Days 0    
Month to date heating degree days 141  
Since 1 July heating degree days 1284  
Cooling Degree Days 4    
Month to date cooling degree days 5  
Year to date cooling degree days 17  
Growing Degree Days 18 (Base 50)    
Moisture  
Dew Point 51 °F    
Average Humidity 55    
Maximum Humidity 86    
Minimum Humidity 23    
Precipitation  
Precipitation 0.00 in 0.16 in 2.30 in (1913)
Month to date precipitation 8.38 4.45  
Year to date precipitation 16.43 13.64  
Sea Level Pressure  
Sea Level Pressure 30.03 in    
Wind  
Wind Speed 4 mph (West)    
Max Wind Speed 13 mph    
Max Gust Speed 69 mph    
Visibility 10 miles    
Events      
T = Trace of Precipitation, MM = Missing Value Source: NWS Daily Summary

Daily Weather History Graph

Daily Weather History Graph

Search for Another Location

Airport or City:

Trip Planner

Search our weather history database for the weather conditions in past years. The results will help you decide how hot, cold, wet, or windy it might be!

Date:

Astronomy

Mar. 22, 2014 Rise Set
Actual Time 7:38 AM EDT 7:50 PM EDT
Civil Twilight 7:14 AM EDT 8:14 PM EDT
Nautical Twilight 6:46 AM EDT 8:42 PM EDT
Astronomical Twilight 6:18 AM EDT 9:10 PM EDT
Moon 12:49 AM EDT (3/22) 11:41 AM EDT (3/22)
Length of Visible Light 12h 59m
Length of Day
12h 11m
Waning Gibbous, 65% of the Moon is Illuminated
Mar 22
Waning Gibbous
Mar 23
Last Quarter
Mar 30
New
Apr 7
First Quarter
Apr 15
Full

Hourly Weather History & Observations

Time (EDT) Temp. Dew Point Humidity Pressure Visibility Wind Dir Wind Speed Gust Speed Precip Events Conditions
12:53 AM 55.9 °F 50.0 °F 80% 30.05 in 10.0 mi Calm Calm - N/A   Clear
1:53 AM 55.9 °F 50.0 °F 80% 30.03 in 10.0 mi Calm Calm - N/A   Partly Cloudy
2:53 AM 59.0 °F 52.0 °F 78% 30.04 in 10.0 mi Calm Calm - N/A   Overcast
3:53 AM 59.0 °F 52.0 °F 78% 30.04 in 10.0 mi WNW 4.6 mph - N/A   Mostly Cloudy
4:53 AM 59.0 °F 52.0 °F 78% 30.02 in 10.0 mi Calm Calm - N/A   Mostly Cloudy
5:53 AM 57.9 °F 52.0 °F 81% 30.03 in 10.0 mi Calm Calm - N/A   Scattered Clouds
6:53 AM 55.9 °F 51.1 °F 84% 30.05 in 10.0 mi Calm Calm - N/A   Scattered Clouds
7:53 AM 55.9 °F 52.0 °F 87% 30.06 in 10.0 mi Calm Calm - N/A   Mostly Cloudy
8:53 AM 61.0 °F 54.0 °F 78% 30.08 in 10.0 mi Calm Calm - N/A   Overcast
9:53 AM 64.0 °F 55.9 °F 75% 30.08 in 10.0 mi Calm Calm - N/A   Overcast
10:53 AM 70.0 °F 54.0 °F 57% 30.08 in 10.0 mi NNW 4.6 mph - N/A   Mostly Cloudy
11:53 AM 73.0 °F 53.1 °F 49% 30.08 in 10.0 mi NW 8.1 mph - N/A   Mostly Cloudy
12:53 PM 75.9 °F 51.1 °F 42% 30.05 in 10.0 mi Variable 4.6 mph - N/A   Mostly Cloudy
1:53 PM 78.1 °F 46.0 °F 32% 30.02 in 10.0 mi NNE 4.6 mph - N/A   Mostly Cloudy
2:53 PM 80.1 °F 46.0 °F 30% 30.00 in 10.0 mi Variable 3.5 mph - N/A   Scattered Clouds
3:53 PM 82.0 °F 46.0 °F 28% 29.97 in 10.0 mi North 8.1 mph - N/A   Partly Cloudy
4:53 PM 82.0 °F 41.0 °F 23% 29.96 in 10.0 mi SW 6.9 mph - N/A   Partly Cloudy
5:53 PM 82.0 °F 43.0 °F 25% 29.96 in 10.0 mi WNW 6.9 mph - N/A   Partly Cloudy
6:53 PM 81.0 °F 44.1 °F 27% 29.97 in 10.0 mi Variable 5.8 mph - N/A   Clear
7:53 PM 73.0 °F 57.9 °F 59% 30.00 in 10.0 mi SSW 9.2 mph - N/A   Partly Cloudy
8:53 PM 70.0 °F 57.9 °F 65% 30.03 in 10.0 mi Calm Calm - N/A   Clear
9:53 PM 64.9 °F 57.0 °F 75% 30.04 in 10.0 mi SSW 3.5 mph - N/A   Clear
10:53 PM 63.0 °F 55.9 °F 78% 30.06 in 10.0 mi WSW 4.6 mph - N/A   Clear
11:53 PM 63.0 °F 54.0 °F 72% 30.06 in 10.0 mi SSE 12.7 mph 69.0 mph N/A   Clear